Wind_Speed
2 3 4 7 8 10 14 17 19 21 22 23 23 22 21 20 19 18 22 26 30 29 26 27 28 28 26 26 25 25 25 24 27 27 23 21 23 23 24 22 21 20 20
7 10 12 14 16 18 19 20 22 25 26 26 25 25 25 25 24 25 24 23 27 27 30 31 31 28 30 29 27 29 28 27 27 29 27 26 25 23 24 25 23 20 21
16 18 19 20 19 19 21 23 26 29 30 28 27 27 26 24 25 29 30 28 24 28 31 32 35 33 34 31 30 28 25 24 26 27 29 26 26 24 24 24 23 22 21
18 19 23 22 24 27 29 30 30 29 30 30 30 30 30 29 28 26 28 32 28 26 28 32 37 36 38 36 33 33 33 33 29 31 32 31 28 26 24 23 22 21 21
21 23 24 28 30 30 29 30 31 31 30 31 30 31 31 31 32 29 27 26 29 32 32 30 32 34 35 35 37 36 32 31 30 33 34 33 31 28 26 23 23 22 23
20 19 22 26 28 29 30 31 32 33 32 32 32 33 34 35 36 36 37 34 31 32 36 38 38 34 38 38 40 42 40 41 43 39 37 37 34 31 28 29 27 25 25
23 26 29 30 32 32 32 32 32 34 35 36 37 37 40 41 41 42 41 41 39 36 39 39 37 34 36 38 37 40 41 44 44 48 42 41 34 30 29 30 28 29 28
22 24 26 30 33 33 39 39 40 38 39 39 40 40 42 44 45 45 44 42 45 47 46 45 45 44 43 39 41 38 43 47 42 46 46 43 40 34 34 34 34 35 32
21 23 24 28 28 34 38 36 40 41 43 45 43 45 45 48 45 44 41 40 43 46 46 47 45 47 47 48 44 45 44 41 45 49 48 47 46 35 33 34 36 29 31
18 19 23 35 35 34 42 40 43 44 47 45 46 45 45 49 49 46 41 38 43 46 45 43 46 47 48 48 44 47 49 48 38 33 31 32 36 35 31 35 35 32 31
20 22 25 34 42 43 41 41 46 46 47 48 48 48 46 45 46 46 42 40 43 43 41 40 39 40 43 44 45 45 49 43 42 38 31 28 29 35 38 34 33 31 32
23 25 26 34 37 37 42 48 46 46 47 46 48 52 51 49 44 43 44 41 42 43 41 37 37 37 39 37 37 42 43 45 41 41 28 24 22 22 22 25 27 27 27
24 25 25 34 33 37 40 50 47 45 47 44 46 48 50 48 47 44 38 35 33 39 45 44 44 41 38 39 39 37 37 38 38 37 31 28 26 26 26 27 28 29 30
24 23 26 29 32 33 40 45 50 49 49 45 43 47 48 47 43 40 33 27 29 26 29 34 39 39 37 38 40 37 35 38 35 37 37 33 28 26 31 30 26 24 24
22 21 25 27 30 29 43 43 49 45 49 42 37 34 36 41 39 37 32 24 27 26 22 24 25 31 32 33 36 37 34 31 31 27 28 26 25 22 20 19 20 18 19
19 19 23 27 29 29 32 39 44 40 48 45 38 34 26 29 34 37 39 37 30 35 34 33 23 25 29 32 32 34 32 30 26 30 24 19 17 15 12 11 13 13 16
23 23 24 27 25 25 24 29 40 41 52 51 51 44 31 26 35 33 29 25 29 34 36 33 28 26 28 28 33 30 30 25 24 21 18 17 11 9 15 17 18 20 20
21 22 22 25 23 22 19 22 27 46 34 53 57 52 50 39 21 11 11 16 22 27 30 30 29 26 26 32 29 30 28 21 16 14 13 11 7 6 7 6 5 5 2
18 19 21 22 20 21 22 24 27 34 38 32 47 64 56 52 41 31 20 3 12 17 19 17 22 26 29 27 30 23 21 22 22 18 15 13 13 13 11 12 11 14 16
17 21 24 21 21 21 21 23 21 28 33 33 33 42 57 60 60 54 42 29 26 24 22 21 21 23 24 30 29 28 25 23 21 18 13 11 9 8 9 11 12 10 9
19 21 22 21 20 22 22 22 22 20 26 29 27 29 37 51 50 50 55 49 46 29 29 27 25 27 30 29 24 23 22 17 20 19 12 11 12 9 6 7 8 8 10
20 20 20 22 22 21 22 22 21 21 23 21 25 23 23 26 38 44 43 42 42 39 33 32 32 28 26 26 23 22 21 23 20 15 11 9 10 9 6 5 5 6 9
20 19 19 20 21 22 23 22 20 23 21 22 15 18 15 19 18 21 25 30 22 22 26 30 32 27 23 21 21 22 22 21 19 17 13 10 7 4 3 4 4 4 5
21 18 19 20 20 20 21 22 21 21 20 19 18 19 17 14 13 14 14 15 18 17 18 17 16 18 19 16 16 16 16 15 15 14 12 9 6 6 4 3 2 3 4
22 20 21 20 20 18 19 18 18 18 18 17 16 15 14 14 14 13 13 15 13 12 12 14 12 10 8 7 10 10 8 7 7 9 10 9 9 8 6 3 3 1 1
21 20 20 18 17 16 16 15 13 14 14 13 13 13 13 13 12 11 10 9 9 9 9 9 9 8 7 8 7 8 8 8 8 6 7 6 5 5 3 3 5 2 3
Wind_Direction
157 281 285 296 299 291 288 291 294 296 299 300 302 302 304 304 300 287 272 266 259 255 257 258 256 255 255 254 256 260 263 265 271 276 276 279 280 279 278 279 279 280 283
309 298 292 293 290 288 290 289 291 293 294 296 296 294 293 292 292 293 288 272 267 270 268 259 254 255 256 256 251 248 250 255 261 268 270 271 274 276 277 277 280 273 274
298 303 301 301 302 299 297 295 292 290 290 290 288 288 287 284 283 284 283 282 274 273 269 268 264 256 253 249 247 250 253 256 261 265 269 272 272 270 272 274 276 278 280
324 326 321 314 308 307 301 296 293 290 289 287 283 280 278 279 278 278 278 278 274 272 272 269 269 264 261 253 248 248 247 248 254 258 263 268 269 271 269 271 272 274 278
329 327 322 319 316 313 307 302 298 293 287 283 282 279 276 274 273 276 274 268 275 274 267 267 268 266 261 259 251 245 242 244 243 249 254 257 257 260 261 264 268 274 275
340 333 327 322 319 316 313 310 305 300 295 289 282 277 273 271 269 263 262 267 272 272 272 266 260 265 268 261 252 245 240 244 249 244 249 251 253 252 257 262 264 268 273
345 336 331 328 324 320 317 313 309 304 300 294 289 284 278 273 268 266 265 266 270 270 269 268 266 262 259 258 259 254 246 242 255 261 255 252 256 259 262 262 260 266 268
350 347 343 336 330 328 325 318 313 307 300 294 289 284 281 277 272 267 266 267 268 269 268 267 264 261 256 255 260 256 254 253 254 255 251 259 258 259 256 259 264 267 270
353 352 348 346 334 328 326 320 314 306 300 295 288 284 281 280 277 274 271 267 265 266 268 267 264 260 259 258 255 256 254 263 254 255 262 269 272 268 266 268 262 260 265
333 328 330 343 333 324 326 321 321 313 303 298 294 289 284 280 276 273 269 265 263 261 264 266 264 259 256 256 254 255 256 260 256 252 261 268 269 273 258 256 255 249 255
316 318 317 329 334 332 324 320 324 315 307 301 296 293 292 286 284 281 279 261 255 256 257 260 259 260 261 259 255 251 258 260 255 259 260 266 263 262 262 257 256 246 249
310 315 318 337 338 339 339 341 334 325 313 300 296 297 294 293 290 280 281 276 253 247 248 251 251 252 259 261 259 250 253 259 262 255 247 251 252 261 265 252 250 250 245
311 311 314 325 326 335 340 345 339 332 327 310 300 296 293 291 289 285 279 273 266 255 249 249 252 251 250 253 254 252 255 256 258 256 241 242 251 260 261 251 253 256 259
317 317 323 316 316 320 332 343 348 344 335 333 319 302 297 294 292 285 276 262 265 269 263 256 253 255 254 254 252 249 257 248 250 244 243 246 253 256 264 266 262 258 257
319 320 324 324 325 317 337 337 339 349 349 345 345 327 304 293 290 285 276 253 244 237 227 244 253 253 249 249 246 254 251 240 234 231 233 240 249 249 251 254 255 255 260
324 322 323 324 326 326 333 344 353 350 358 5 3 353 324 294 286 276 271 265 262 235 255 262 250 253 256 254 248 237 240 221 233 232 223 217 220 225 237 248 263 265 262
329 321 324 325 321 324 331 343 351 352 8 7 12 11 0 335 295 281 256 250 247 234 251 255 252 252 239 242 244 230 220 223 208 196 202 208 213 226 253 254 244 255 264
328 325 327 324 315 329 320 335 347 3 348 8 11 9 14 18 6 317 251 237 237 232 248 258 256 238 243 226 221 210 189 179 187 193 196 190 164 157 178 179 158 131 145
318 324 324 325 322 315 323 336 353 355 359 353 5 10 11 19 44 60 58 298 253 249 240 222 227 224 210 198 174 172 171 155 145 139 144 138 135 133 128 126 113 108 108
324 325 325 321 323 326 316 315 316 342 357 354 2 16 12 23 36 42 60 69 85 88 102 140 133 149 139 143 130 128 127 125 128 124 124 126 123 123 131 125 124 124 116
320 324 328 327 329 329 331 328 339 340 348 357 1 10 27 26 29 33 42 53 56 85 92 96 97 83 98 111 110 113 121 143 128 122 117 132 119 118 122 143 138 127 116
315 319 323 329 333 333 327 335 333 336 343 342 354 350 4 26 35 37 37 39 51 53 63 81 92 87 83 90 98 110 102 94 87 96 115 109 110 124 124 136 137 174 168
311 312 317 319 326 329 332 332 336 341 345 345 357 7 8 9 16 42 51 48 50 58 62 59 69 78 86 94 96 96 91 87 90 85 95 99 114 125 129 128 136 161 176
303 313 318 319 324 325 331 331 332 337 342 348 355 3 8 19 32 24 34 53 59 68 64 61 48 46 52 64 62 68 72 84 71 64 69 80 83 69 81 90 88 158 126
306 304 309 314 321 324 329 330 329 334 341 347 352 358 4 9 19 27 24 30 48 67 65 68 70 71 64 51 51 58 59 50 52 60 53 56 51 53 53 34 30 332 283
309 305 307 308 315 322 328 330 333 335 341 349 354 358 2 5 7 9 13 20 24 31 45 57 54 51 33 24 19 10 3 354 351 351 35 23 24 1 14 351 338 308 299
Height
1580 1582 1581 1579 1577 1577 1575 1573 1572 1570 1568 1567 1565 1563 1562 1560 1558 1557 1556 1556 1555 1554 1554 1554 1553 1553 1553 1554 1554 1554 1553 1554 1551 1549 1549 1548 1546 1545 1543 1542 1540 1539 1538
1577 1579 1578 1576 1575 1574 1572 1570 1568 1565 1562 1560 1558 1557 1555 1554 1552 1550 1548 1547 1547 1546 1545 1545 1544 1546 1543 1543 1544 1543 1544 1545 1544 1540 1540 1539 1537 1536 1534 1533 1532 1533 1532
1568 1571 1572 1569 1569 1566 1564 1562 1559 1556 1554 1553 1552 1549 1547 1545 1544 1543 1541 1539 1539 1538 1536 1535 1534 1535 1534 1535 1535 1536 1535 1534 1534 1533 1531 1532 1531 1530 1528 1526 1525 1526 1525
1566 1563 1562 1562 1560 1557 1555 1553 1551 1549 1546 1544 1542 1541 1538 1536 1534 1533 1531 1530 1529 1528 1527 1525 1525 1524 1524 1525 1525 1524 1525 1525 1526 1525 1524 1523 1523 1523 1522 1521 1520 1520 1519
1562 1560 1558 1555 1552 1549 1546 1543 1540 1537 1536 1534 1532 1530 1528 1526 1525 1525 1523 1521 1518 1516 1516 1516 1514 1513 1513 1514 1514 1513 1515 1514 1514 1514 1512 1511 1510 1512 1513 1513 1512 1512 1513
1557 1556 1553 1549 1545 1542 1538 1534 1530 1527 1523 1520 1518 1517 1514 1513 1513 1511 1510 1510 1508 1505 1503 1502 1503 1504 1502 1502 1501 1501 1502 1500 1499 1500 1500 1501 1501 1502 1505 1507 1505 1505 1504
1552 1550 1546 1542 1538 1535 1531 1527 1523 1518 1513 1509 1504 1502 1497 1496 1496 1496 1497 1496 1494 1493 1491 1490 1490 1492 1492 1491 1489 1489 1490 1489 1490 1491 1490 1494 1497 1498 1499 1497 1498 1498 1497
1549 1546 1542 1538 1533 1528 1522 1517 1512 1509 1504 1499 1494 1490 1485 1481 1481 1481 1483 1483 1480 1478 1476 1476 1476 1476 1478 1479 1479 1479 1477 1478 1480 1481 1481 1483 1487 1487 1487 1489 1489 1488 1487
1546 1543 1539 1536 1532 1527 1520 1514 1506 1499 1492 1485 1481 1476 1471 1465 1467 1467 1468 1469 1466 1462 1461 1460 1462 1462 1463 1465 1467 1468 1466 1465 1471 1473 1473 1473 1473 1476 1478 1479 1478 1477 1476
1545 1541 1537 1531 1526 1519 1513 1504 1496 1489 1478 1472 1464 1460 1455 1449 1450 1449 1452 1453 1450 1447 1447 1446 1446 1447 1449 1451 1453 1454 1454 1455 1460 1464 1464 1462 1462 1463 1464 1467 1467 1466 1468
1541 1537 1532 1526 1519 1511 1504 1497 1487 1477 1467 1459 1450 1444 1439 1437 1433 1432 1434 1434 1432 1431 1432 1433 1434 1435 1435 1437 1440 1440 1440 1446 1448 1449 1451 1453 1452 1452 1453 1454 1454 1456 1456
1535 1529 1526 1519 1514 1506 1497 1487 1476 1465 1454 1445 1437 1429 1424 1420 1417 1416 1415 1415 1415 1416 1416 1419 1421 1424 1425 1425 1427 1428 1432 1435 1435 1438 1440 1442 1443 1444 1443 1444 1444 1446 1447
1529 1525 1520 1513 1507 1500 1490 1480 1467 1457 1445 1434 1425 1416 1410 1407 1403 1401 1402 1400 1400 1400 1400 1401 1406 1409 1413 1414 1415 1417 1421 1423 1423 1424 1428 1432 1433 1434 1435 1436 1436 1437 1437
1524 1519 1513 1506 1501 1494 1486 1476 1464 1450 1439 1426 1415 1405 1398 1394 1392 1391 1391 1391 1390 1390 1390 1390 1393 1396 1400 1402 1404 1406 1409 1411 1412 1415 1417 1422 1424 1425 1425 1426 1426 1428 1428
1519 1513 1508 1504 1498 1490 1481 1472 1460 1450 1437 1422 1410 1400 1391 1385 1381 1380 1379 1381 1382 1382 1381 1382 1383 1385 1386 1389 1392 1395 1398 1401 1404 1406 1410 1413 1414 1417 1418 1420 1420 1421 1420
1513 1509 1504 1499 1492 1485 1477 1465 1456 1446 1433 1418 1406 1395 1384 1378 1371 1367 1365 1366 1369 1371 1370 1371 1372 1374 1376 1378 1381 1385 1391 1393 1397 1398 1401 1405 1408 1411 1413 1414 1414 1415 1414
1509 1503 1500 1494 1488 1481 1473 1465 1452 1440 1429 1415 1401 1390 1379 1369 1357 1350 1350 1353 1357 1361 1361 1361 1363 1366 1367 1371 1375 1379 1382 1386 1388 1393 1396 1400 1404 1406 1407 1407 1407 1408 1408
1504 1500 1496 1490 1483 1476 1470 1461 1453 1442 1427 1417 1403 1394 1379 1365 1350 1340 1342 1347 1349 1352 1353 1355 1356 1358 1359 1364 1368 1372 1376 1381 1386 1390 1394 1398 1401 1402 1402 1404 1403 1403 1404
1502 1498 1493 1486 1479 1473 1465 1458 1452 1443 1433 1423 1410 1395 1380 1366 1352 1342 1341 1345 1348 1350 1349 1350 1352 1354 1354 1358 1358 1367 1372 1379 1383 1388 1392 1397 1400 1403 1403 1403 1404 1406 1405
1499 1494 1489 1484 1478 1472 1466 1456 1450 1444 1435 1426 1416 1407 1392 1370 1358 1353 1349 1349 1347 1348 1351 1351 1350 1352 1353 1349 1362 1369 1375 1380 1385 1389 1394 1398 1401 1405 1406 1404 1406 1409 1408
1495 1491 1486 1479 1474 1470 1464 1458 1450 1443 1437 1430 1424 1416 1405 1392 1380 1375 1364 1358 1349 1361 1358 1356 1359 1350 1355 1364 1369 1370 1377 1385 1382 1384 1393 1398 1398 1403 1406 1406 1406 1406 1407
1492 1488 1483 1477 1472 1466 1462 1456 1450 1444 1438 1432 1426 1422 1417 1408 1401 1392 1385 1381 1377 1373 1367 1365 1367 1368 1370 1374 1382 1387 1386 1384 1387 1389 1396 1398 1400 1407 1410 1408 1407 1406 1407
1488 1483 1479 1476 1471 1466 1459 1455 1450 1444 1439 1433 1429 1425 1421 1417 1412 1410 1404 1398 1396 1392 1386 1385 1382 1387 1388 1389 1390 1390 1390 1390 1393 1397 1400 1402 1406 1408 1408 1407 1406 1407 1408
1483 1480 1475 1471 1467 1464 1459 1454 1449 1444 1440 1436 1432 1429 1424 1420 1417 1414 1411 1408 1407 1405 1404 1400 1399 1399 1397 1395 1394 1394 1395 1396 1400 1401 1403 1405 1407 1408 1408 1408 1407 1407 1409
1478 1475 1471 1467 1464 1461 1458 1454 1449 1445 1441 1437 1434 1431 1428 1425 1421 1418 1415 1413 1411 1409 1409 1407 1406 1405 1404 1402 1401 1401 1402 1404 1404 1405 1407 1407 1407 1407 1407 1408 1409 1409 1410
1473 1470 1467 1464 1461 1459 1456 1453 1450 1446 1442 1439 1436 1433 1430 1427 1424 1422 1420 1418 1416 1415 1413 1410 1408 1408 1407 1406 1406 1406 1405 1405 1405 1405 1407 1407 1407 1407 1408 1409 1409 1410 1410